Skip Page Navigation
NASA JPL Caltech
NASA Logo - Jet Propulsion Laboratory + View the NASA Portal
+ Center for Near-Earth Object Studies
JPL Home Earth Solar System Stars & Galaxies Technology
JPL Solar System Dynamics
BODIES ORBITS EPHEMERIDES TOOLS PHYSICAL DATA DISCOVERY FAQ SITE MAP
JPL Small-Body Database Browser
Search: [ help ]  
5254 Ulysses (1986 VG1)
Classification: Jupiter Trojan          SPK-ID: 2005254
Ephemeris | Orbit Diagram | Orbital Elements | Mission Design | Physical Parameters | Discovery Circumstances ]

[ show orbit diagram ]
Orbital Elements at Epoch 2459396.5 (2021-Jul-01.0) TDB
Reference: JPL 43 (heliocentric ecliptic J2000)
 Element Value Uncertainty (1-sigma)   Units 
e .1227242248827188 3.4039e-08  
a 5.226683059840099 8.7911e-08 au
q 4.585242432613585 2.2193e-07 au
i 24.19243416118399 2.1095e-06 deg
node 76.0068341678227 6.012e-06 deg
peri 343.8834279965453 1.7694e-05 deg
M 319.6826740742263 2.1952e-05 deg
tp 2459885.295157022342
(2022-Nov-01.79515702)
0.00027283 TDB
period 4364.531934781745
11.95
0.00011012
3.015e-07
d
yr
n .08248307158233735 2.081e-09 deg/d
Q 5.868123687066611 9.87e-08 au
  Orbit Determination Parameters
   # obs. used (total)      2022  
   data-arc span      25436 days (69.64 yr)  
   first obs. used      1951-11-04  
   last obs. used      2021-06-25  
   planetary ephem.      DE441  
   SB-pert. ephem.      SB441-N16  
   condition code      0  
   norm. resid. RMS      .4458  
   source      ORB  
   producer      Otto Matic  
   solution date      2021-Jul-09 13:37:59  

Additional Information
 Earth MOID = 3.6045 au 
 Jupiter MOID = .475265 au 
 T_jup = 2.810 
[ show covariance matrix ]

Ephemeris | Orbit Diagram | Orbital Elements | Mission Design | Physical Parameters | Discovery Circumstances ]

Physical Parameter Table
Parameter Symbol Value Units Sigma Reference Notes
absolute magnitude H 9.30   n/a E2021B10  
diameter diameter 76.147 km 0.396 urn:nasa:pds:neowise_diameters_albedos::2.0[jupiter_trojans] (http://adsabs.harvard.edu/abs/2012ApJ...759...49G)  
rotation period rot_per 28.72 h n/a LCDB (Rev. 2020-October); Warner et al., 2009 Published Reference List:
[Mottola, S.; Di Martino, M.; Erikson, A.; Gonano-Beurer, M.; et al. (2011) Astron. J. 141, A170.]
[Waszczak, A.; Chang, C.-K.; Ofeck, E.O.; Laher, F.; et al. (2015) Astron. J. 150, A75.]
geometric albedo albedo 0.070   0.006 urn:nasa:pds:neowise_diameters_albedos::2.0[jupiter_trojans] (http://adsabs.harvard.edu/abs/2012ApJ...759...49G)  

5254 Ulysses (1986 VG1)          Discovered 1986-Nov-07 by Elst, E. W. at Haute Provence
Reference: DISCOVERY.DBLast Updated: 2003-08-29

Alternate Designations
 1986 VG1 = 1990 FN 
Ephemeris | Orbit Diagram | Orbital Elements | Mission Design | Physical Parameters | Discovery Circumstances ]
ABOUT SSD CREDITS/AWARDS PRIVACY/COPYRIGHT GLOSSARY LINKS
FirstGov 2021-Jul-28 17:44 UT
(server date/time)  
NASA Home Page
Site Manager:   Ryan S. Park
Webmaster  Alan B. Chamberlin